CST,Max TemperatureF,Mean TemperatureF,Min TemperatureF,Max Dew PointF,MeanDew PointF,Min DewpointF,Max Humidity, Mean Humidity, Min Humidity, Max Sea Level PressureIn, Mean Sea Level PressureIn, Min Sea Level PressureIn, Max VisibilityMiles, Mean VisibilityMiles, Min VisibilityMiles, Max Wind SpeedMPH, Mean Wind SpeedMPH, Max Gust SpeedMPH,PrecipitationIn, CloudCover, Events, WindDirDegrees
2012-12-1,44,38,32,44,36,30,100,96,92,30.19,29.95,29.78,2,1,0,13,8,18,0.01,8,Fog-Rain,145
2012-12-2,44,40,36,45,38,35,100,93,85,30.05,29.95,29.79,5,3,0,12,5,16,0.00,8,Fog,250
2012-12-3,58,48,38,55,47,35,100,90,80,29.99,29.73,29.59,10,3,0,24,12,32,0.09,6,Fog-Rain,184
2012-12-4,42,31,20,33,21,9,76,61,46,30.37,30.08,29.86,10,10,10,25,14,32,0.00,0,,284
2012-12-5,31,23,15,23,15,11,80,67,53,30.47,30.35,30.14,10,10,10,15,7,17,0.00,2,,152
2012-12-6,43,37,30,36,30,24,85,78,70,30.11,29.90,29.75,10,10,8,24,9,30,0.01,6,,216
2012-12-7,34,30,25,25,22,21,88,75,61,30.04,30.00,29.93,10,10,10,13,5,17,T,4,,335
2012-12-8,36,29,21,23,20,17,92,72,52,30.17,30.05,29.96,10,8,2,9,3,12,0.01,4,Snow,24
2012-12-9,31,28,25,27,24,19,92,84,75,30.18,29.91,29.72,10,4,1,16,9,22,0.22,7,Snow,63
2012-12-10,28,24,19,25,20,16,92,84,75,29.92,29.84,29.72,10,7,2,10,5,15,0.02,8,Snow,279
2012-12-11,20,18,16,16,14,12,92,83,73,30.07,29.91,29.80,10,8,3,17,9,22,0.01,8,Snow,228
2012-12-12,37,24,11,25,17,8,92,76,59,30.16,30.08,30.02,10,7,2,16,9,22,0.00,6,Snow,180
2012-12-13,37,29,21,23,20,17,84,66,48,30.15,30.06,30.02,10,10,4,17,6,23,0.00,0,,207
2012-12-14,34,26,18,31,23,16,100,88,75,30.24,30.15,30.03,9,5,0,17,7,22,0.00,5,Fog,101
2012-12-15,38,36,33,36,35,31,100,93,85,30.00,29.71,29.49,7,4,0,22,10,28,0.32,8,Fog-Rain,105
2012-12-16,37,34,31,36,33,28,100,93,85,29.70,29.58,29.48,10,7,0,14,7,17,0.06,8,Fog-Rain,286
2012-12-17,31,28,24,27,21,18,92,83,74,29.76,29.71,29.66,10,9,7,16,6,18,T,8,,305
2012-12-18,31,25,19,21,19,17,92,81,69,29.86,29.73,29.65,10,10,7,9,3,10,0.00,5,,95
2012-12-19,31,25,18,27,24,17,92,85,78,30.06,29.97,29.85,10,5,1,10,4,13,0.00,7,Snow,241
2012-12-20,32,30,27,29,26,23,92,85,78,29.95,29.63,29.45,10,2,0,23,13,35,0.54,8,Fog-Snow,356
2012-12-21,30,20,10,22,15,8,88,78,68,30.22,30.03,29.71,10,10,9,23,13,36,T,6,,314
2012-12-22,27,16,4,11,7,1,91,67,42,30.20,30.09,29.98,10,10,10,10,5,13,0.00,0,,269
2012-12-23,23,20,16,17,11,9,84,71,57,30.09,30.05,29.90,10,10,10,16,5,21,T,4,,337
2012-12-24,24,18,12,14,11,5,80,74,67,30.22,30.06,29.95,10,10,10,12,4,15,0.00,6,,348
2012-12-25,21,14,7,8,6,3,91,74,56,30.45,30.37,30.18,10,10,9,9,5,12,0.00,2,,322
2012-12-26,24,15,6,14,9,3,88,74,60,30.40,30.29,30.17,10,10,10,10,5,14,0.00,2,,338
2012-12-27,22,20,17,14,11,10,77,70,62,30.30,30.24,30.15,10,10,10,9,3,13,0.00,7,,31
2012-12-28,23,19,14,20,17,10,92,83,74,30.19,30.02,29.91,10,3,0,12,4,16,0.18,8,Fog-Snow,58
2012-12-29,24,20,16,19,17,10,92,83,73,30.14,29.99,29.88,10,5,1,14,8,18,0.14,8,Snow,309
2012-12-30,20,14,8,15,8,5,83,75,67,30.25,30.13,29.93,10,6,1,14,7,18,T,5,Snow,231
2012-12-31,22,12,2,17,8,-3,87,71,54,30.21,30.04,29.84,10,9,5,18,8,24,T,4,Snow,310